z

Poznań

Wyniki

Bieg 1

02.11.2013 Dystans: 5 km Rodzaj: Bieg główny
Pobierz wyniki:
Miejsce Nr Nazwisko Imię Miasto Klub Rocznik Kategoria Czas netto Czas brutto
1 1 MUŚLEWSKI MACIEJ Poznań SKLEPBIEGACZA.PL - POZNAŃ 1987 M16 00:15:43 00:15:43
2 34 NOWICKI SEBASTIAN Oborniki 1994 M16 00:15:48 00:15:49
3 14 LECHNIAK HUBERT Buk SKLEPBIEGACZA.PL-POZNAŃ 1986 M16 00:16:26 00:16:26
4 515 KRAWCZYK JACEK Poznań UAM TRIATHON 1996 M16 00:16:39 00:16:40
5 5 PRZYMUSIŃSKI FILIP POZNAŃ UAM TRIATHLON 1983 M16 00:16:54 00:16:55
6 862 RODEWALD MATEUSZ Wronki KU AZS PP POZNAŃ 1993 M16 00:16:56 00:16:57
7 820 NOWAK MATEUSZ Skoki UKS "SKOCZEK" SKOKI 1996 M16 00:17:01 00:17:04
8 866 WOJTASZAK PAWEŁ Poznań SKLEPBIEGACZA.PL - POZNAŃ 1996 M16 00:17:07 00:17:07
9 16 PLUCIŃSKI RADOSŁAW Swarzędz KB MANIACK POZNAŃ 1989 M16 00:17:10 00:17:10
10 622 KOWALSKI DARIUSZ Gniezno UAM TRIATHLON POZNAŃ 1979 M16 00:17:15 00:17:15
11 26 KOWALCZYK ANDRZEJ Łekno GRAND PRIX POZNANIA TEAM 1987 M16 00:17:19 00:17:20
12 199 JANKOWIAK PAWEŁ Nowy Tomyśl PAPROĆ 1989 M16 00:17:22 00:17:23
13 884 TOMCZAK JAKUB Luboń AZS POZNAŃ 1996 M16 00:17:31 00:17:32
14 24 GRABSKI RAFAŁ Cicha Góra GRODZISKI KLUB BIEGACZA 1992 M16 00:17:38 00:17:40
15 41 GRZEŚ ANDRZEJ Śrem UAM TRIATHLON 1994 M16 00:17:38 00:17:40
16 247 WRZECIAN ADAM Poznań NIGHT RUNNERS 1986 M16 00:17:38 00:17:40
17 861 GAWEŁ MICHAŁ Gniezno UAM TRIATHLON 1994 M16 00:17:46 00:17:47
18 224 TOMCZAK ADAM Gołuski GOGGLE PRO ACTIVE EYEWEAR 1982 M16 00:17:48 00:17:51
19 135 LASOŃ PRZEMEK Poznań 1990 M16 00:17:56 00:17:57
20 679 GRACZYK ADRIAN Czarnków 1988 M16 00:18:01 00:18:02
21 180 WOŹNIAK PIOTR Sieraków wielkopolski 1996 M16 00:18:03 00:18:05
22 6 GACKI ROBERT Rabowice STR POZNAŃ 1984 M16 00:18:08 00:18:09
23 203 MAJŁOWSKI PIOTR Gorzów Wlkp. TURBO ŻÓŁWIE 1988 M16 00:18:10 00:18:11
24 891 KUPKA GRZEGORZ Poznań UAM TRIATHLON 1994 M16 00:18:28 00:18:30
25 477 MICH SZYMON Olsztyn BBL POZNAŃ 1984 M16 00:18:36 00:18:36
26 69 STACHOWIAK ŁUKASZ Poznań STR POZNAŃ 1986 M16 00:18:39 00:18:40
27 67 PTAK TOMASZ Lednogóra KU AZS POLITECHNIKA POZNAŃSKA 1993 M16 00:18:48 00:18:50
28 476 NOWAK GRZEGORZ PAWEŁ Poznań NIGHT RUNNERS 1989 M16 00:18:53 00:18:55
29 25 SZCZESZEK ROBERT Poznań SKLEPBIEGACZA.PL POZNAŃ 1989 M16 00:18:56 00:18:58
30 124 WIECZOREK FILIP Poznań NIGHT RUNNERS 1987 M16 00:18:57 00:19:00
31 727 BIAŁCZYK MARCIN Rościmin PRESS-SERVICE MONITORING MEDIÓW 1987 M16 00:19:03 00:19:05
32 38 SIKORA ROBERT Poznań 1980 M16 00:19:05 00:19:05
33 72 ŁUCZAK MARCIN Plewiska NIGHT RUNNERS 1982 M16 00:19:05 00:19:07
34 643 KUSZNIEREWICZ MACIEJ Poznań WWW.KUSZNIEREWICZ.EU 1985 M16 00:19:09 00:19:11
35 608 ZAGÓRSKI TOMASZ POZNAŃ ZAGÓRSZCZAKI 1980 M16 00:19:09 00:19:11
36 491 FRĄCZYK MARIUSZ Poznań 1983 M16 00:19:12 00:19:12
37 468 BALICKI ARTUR Poznań SL OLIMPIA POZNAŃ 1997 M16 00:19:14 00:19:16
38 120 GABRYSZAK ADRIAN Poznań NIGHT RUNNERS 1980 M16 00:19:15 00:19:18
39 792 BŁASZYK PRZEMYSŁAW Pniewy MLUKS TRIATHLON KOŁO 1984 M16 00:19:20 00:19:20
40 646 SAMBORSKI PAWEŁ Poznań 1984 M16 00:19:22 00:19:25
41 417 MAJEK PIOTR Dąbrówka KLUB WIOŚLARSKI Z R. 1904 POZNAŃ 1992 M16 00:19:26 00:19:27
42 736 TOMCZAK MARCIN Poznań MARKETINGPRAWNICZY.COM 1985 M16 00:19:29 00:19:30
43 621 TOTA RADOSŁAW Poznań TOTA TEAM 1982 M16 00:19:31 00:19:33
44 709 SZPIR MACIEJ Poznań ZBIEGIEMNATURY - POZNAŃ 1984 M16 00:19:35 00:19:36
45 817 KOŁDYKA MARCIN Poznań 1980 M16 00:19:35 00:19:37
46 284 BIGUS ŁUKASZ Swarzędz KS KOZIOŁEK POZNAŃ 1980 M16 00:19:40 00:19:40
47 122 FRĄK TOMASZ Sieraków 1982 M16 00:19:40 00:19:43
48 378 JANACZYK SZYMON Kleczew 1996 M16 00:19:41 00:19:43
49 155 BASIŃSKI HUBERT Poznań 1979 M16 00:19:43 00:19:46
50 136 ROTH ŁUKASZ poznań NIGHT RUNNERS 1979 M16 00:19:48 00:19:51
51 837 GAŁUSZKA MICHAŁ Poznań KLUB SPORTÓW EKSTREMALNYC ON-SIGHT 1985 M16 00:19:56 00:19:56
52 779 JASKULSKI DOMINIK Poznań OLB 1983 M16 00:19:54 00:19:56
53 70 GAŁKA OSKAR Warszawa ORŁY FUNDACJA RAK-OFF 1984 M16 00:19:57 00:19:57
54 93 MIERZEJEWSKI BARTOSZ Poznań BBL POZNAŃ 1987 M16 00:19:57 00:19:58
55 227 PERZ KAMIL Poznań DRUŻYNA SZPIKU / AZS AWF POZNAŃ 1992 M16 00:19:57 00:19:59
56 774 MALECKI DANIEL Poznan NIGHT RUNNERS 1988 M16 00:19:58 00:20:03
57 197 JÓŹWIAK MARCIN Stęszew AZS AWF POZNAŃ 1986 M16 00:20:00 00:20:05
58 268 SUNDBERG MARC Borówiec 1979 M16 00:20:06 00:20:06
59 157 GLISZCZYŃSKI MIKOŁAJ Pniewy NIGHT RUNNERS 1980 M16 00:20:07 00:20:08
60 271 PASTWA MACIEJ Poznań 1986 M16 00:20:07 00:20:10
61 778 RUGA MIKOŁAJ Poznań TOTAL RUNNERS 1992 M16 00:20:03 00:20:13
62 316 DANEK ŁUKASZ Gostyń TYLKO PINK FLOYD 1988 M16 00:20:14 00:20:14
63 102 NAJEWSKI MARCIN Zalasewo ORŁY FUNDACJA RAK-OFF 1982 M16 00:20:14 00:20:14
64 76 KAŹMIERCZAK MARCIN Lusówko BBL POZNAŃ 1984 M16 00:20:14 00:20:18
65 51 NOCULAK MICHAŁ Luboń ANGLOPROJEKT.PL 1979 M16 00:20:16 00:20:18
66 485 MACIEJEWSKI MARCEL Poznań 1987 M16 00:20:14 00:20:19
67 743 TOMCZAK PRZEMEK Poznań NIGHT RUNNERS 1987 M16 00:20:16 00:20:22
68 107 SZAŁKOWSKI ŁUKASZ Poznań NIGHT RUNNERS 1981 M16 00:20:22 00:20:23
69 628 ŚMICHURSKI KRZYSZTOF Poznań WEST SPORTS TEAM 1989 M16 00:20:23 00:20:27
70 699 DUDZIŃSKI PRZEMYSŁAW Poznań OLB 1990 M16 00:20:26 00:20:29
71 669 EKERT MICHAŁ Poznań SL OLIMPIA POZNAŃ 1997 M16 00:20:31 00:20:32
72 71 SZCZESZEK ŁUKASZ Poznań BBL POZNAŃ/ POZNAN I LOVE YOU TEAM 1980 M16 00:20:31 00:20:33
73 733 WŁODARCZYK ŁUKASZ Poznań NIGHT RUNNERS 1980 M16 00:20:33 00:20:38
74 889 CZAJA EMIL LUBOŃ LUBOŃSKI KLUB BIEGACZA 1990 M16 00:20:28 00:20:39
75 781 GÓRCZAK JANUSZ Kamionki OLB 1986 M16 00:20:36 00:20:39
76 776 BARANIAK JAROSŁAW Poznań LIBRA TEAM 1983 M16 00:20:49 00:20:59
77 48 FOLTYN MARCIN Poznań TOTAL RUNNERS 1995 M16 00:20:51 00:21:00
78 753 MAĆKOWIAK PAWEŁ Poznań NIGHT RUNNERS 1990 M16 00:20:54 00:21:02
79 450 KOCJAN PAWEŁ Poznań NIGHT RUNNERS 1979 M16 00:21:06 00:21:09
80 640 RATAJCZAK KRZYSZTOF Poznań 1980 M16 00:21:03 00:21:09
81 343 DOMAŃSKI ŁUKASZ Mosina VITALIA.PL 1981 M16 00:21:03 00:21:11
82 893 KANONICZAK MATEUSZ POZNAŃ AGROCHEST TEAM 1989 M16 00:21:01 00:21:11
83 668 ZIELIŃSKI PATRYK Poznań 1987 M16 00:21:06 00:21:11
84 248 BUILDING TEDDY Poznań BEBO 1982 M16 00:21:08 00:21:13
85 272 GRZELKA TOMASZ Kaźmierz BRYGADA RUMCAJSA ROJBERA 1983 M16 00:21:09 00:21:14
86 376 KUBIAK MICHAŁ Poznań NIGHT RUNNERS 1981 M16 00:21:10 00:21:15
87 532 BUDYCH BARTOSZ Buk BUKOWSKI KLUB BIEGACZA 1979 M16 00:21:16 00:21:16
88 632 BIELERZEWSKI KRZYSZTOF Poznań WIELKOPOLSCY BIEGACZE/AWF POZNAŃ 1991 M16 00:21:08 00:21:18
89 577 CZERNIEWSKI STEFAN SUCHY LAS BIEGANIEZWIEDZANIE.PL 1981 M16 00:21:17 00:21:22
90 366 GRYCZKA MAREK Poznań BIKETOP TEAM 1979 M16 00:21:19 00:21:24
91 113 DOMAGAŁA MARCIN Poznań NIGHT RUNNERS 1985 M16 00:21:23 00:21:26
92 49 BEDNARZ MATEUSZ Poznań TOTAL RUNNERS 1996 M16 00:21:19 00:21:28
93 125 WIECZOREK PAWEŁ Poznań 7DAK 1987 M16 00:21:24 00:21:28
94 65 LIGĘZA PATRYK Zbąszyń TKKF ŁABĘDŹ ZBĄSZYŃ 1993 M16 00:21:24 00:21:29
95 300 CZERWIŃSKI ŁUKASZ Tarnowo Podgórne POZIOM WYŻEJ - TARNOWO BIEGA 1981 M16 00:21:26 00:21:36
96 492 KAWKA MARCIN Poznan NIGHT RUNNERS 1979 M16 00:21:35 00:21:37
97 769 CICHORACKI PATRYK Grudziądz 1984 M16 00:21:36 00:21:44
98 563 PRZYBYLAK MACIEJ Przeźmierowo NIGHT RUNNERS 1985 M16 00:21:41 00:21:44
99 444 NIEMIR TOMASZ Koziegłowy 1993 M16 00:21:43 00:21:46
100 173 KORBIK MIKOŁAJ Koziegłowy DRUŻYNA SZPIKU 1992 M16 00:21:42 00:21:47
101 169 KORBIK MARCIN Koziegłowy 1987 M16 00:21:42 00:21:48
102 82 WIECZOREK PIOTR Poznań 7DAK 1986 M16 00:21:45 00:21:49
103 372 KOZUBSKI MACIEJ Poznań APLAUZ DĄBRÓWKA 1987 M16 00:21:42 00:21:51
104 615 PAWLIK PIOTR Poznań ENERGOBUD ODDZIAŁ POZNAŃ 1987 M16 00:21:39 00:21:51
105 253 STEMPNIEWICZ MATEUSZ Poznań ŚRODA RACING TEAM 1992 M16 00:21:42 00:21:53
106 519 WYKA SZYMON Poznań WEST SPORTS TEAM 1990 M16 00:21:40 00:21:53
107 374 LIS GRZEGORZ Poznań RUNNERSPROJECT 1986 M16 00:21:50 00:21:57
108 528 STANISŁAWSKI JACEK Poznań 1985 M16 00:21:51 00:21:59
109 130 DUDZIAK GRZEGORZ Mosina NIGHT RUNNERS 1987 M16 00:21:56 00:22:00
110 97 ZIĘBA MACIEJ Poznań BBL POZNAŃ 1982 M16 00:21:52 00:22:00
111 214 HOJAN ŁUKASZ poznań NIGHT RUNNERS 1985 M16 00:22:03 00:22:05
112 341 NAJDEREK MACIEJ ŁÓDŹ NIGHT RUNNERS 1982 M16 00:21:58 00:22:06
113 677 KUBICKI TADEUSZ Suchy Las 1990 M16 00:22:00 00:22:07
114 547 IŁOWIECKI DOMINIK Poznań NIGHT RUNNERS MISIE 1979 M16 00:22:03 00:22:08
115 548 KACZMAREK KRZYSZTOF Poznań 1982 M16 00:22:02 00:22:11
116 864 WASYŁYK ŁUKASZ CZARNKÓW 1979 M16 00:22:07 00:22:11
117 176 CHMIELEWSKI MICHAŁ Poznań ENDUHUB.COM 1982 M16 00:22:10 00:22:14
118 499 SAJEWSKI MARCIN Poznań HARCERZE 1989 M16 00:22:05 00:22:16
119 189 WALCZAK ROBERT Poznań LEXPREMIUM.PL 1980 M16 00:22:05 00:22:16
120 829 DUTKIEWICZ MICHAŁ Poznań 1984 M16 00:22:14 00:22:27
121 718 PARCHIMOWICZ MARIUSZ Kobylnica 1990 M16 00:22:08 00:22:27
122 899 SKRZYPCZAK MIŁOSZ Oborniki G3 OZORNIKI 1997 M16 00:22:00 00:22:27
123 598 SZPAKOWSKI MARCIN Poznan MUD GOATS 1982 M16 00:22:34 00:22:40
124 390 STARKOWSKI SZYMON Poznan 1979 M16 00:22:26 00:22:41
125 330 STACHOWIAK BARTOSZ Luboń LUBOŃ 1982 M16 00:22:34 00:22:43
126 438 WOJCIECHOWSKI MIKOŁAJ Poznań 1997 M16 00:22:30 00:22:44
127 103 JASICZAK JAKUB Dąbrówka 1983 M16 00:22:30 00:22:49
128 657 ZIELIŃSKI KRZYSZTOF Poznań 1990 M16 00:22:45 00:22:50
129 555 KAFTAŃSKI MICHAŁ Poznań 1982 M16 00:22:34 00:22:52
130 62 PIECHOCKI PATRYK Rokietnica 1981 M16 00:22:48 00:22:54
131 452 MIEŚCICKI ŁUKASZ Poznań TRENERTRIATHLONU.PL 1980 M16 00:22:51 00:22:55
132 462 NOWAK MICHAŁ Nowy Tomyśl NIGHT RUNNERS 1989 M16 00:22:45 00:22:55
133 831 GEPPERT JAKUB Poznań NIGHT RUNNERS 1984 M16 00:22:43 00:22:57
134 762 JEZIERSKI BARTOSZ Pniewy 1994 M16 00:22:53 00:22:58
135 823 ŁOSIAK MIKOŁAJ Lusówko MORSOWANIE.PL 1985 M16 00:22:51 00:23:03
136 824 NICPOŃ PAWEŁ Polanów 1987 M16 00:22:51 00:23:03
137 804 BOROWCZYK SEBASTIAN Poznań 1988 M16 00:22:56 00:23:06
138 177 FRĄCKOWIAK JACEK Suchy Las 1984 M16 00:22:42 00:23:06
139 827 SADOWSKI GRZEGORZ Poznań 1981 M16 00:22:52 00:23:11
140 562 MAZUR ANDRZEJ poznan 1982 M16 00:22:58 00:23:12
141 680 SALM ARIEL Słupsk NIGHT RUNNERS 1987 M16 00:23:05 00:23:12
142 419 RUDZIŃSKI PIOTR Poznań 1991 M16 00:22:53 00:23:13
143 716 PABJANIAK WOJCIECH Kobylnica SPORCIMY.PL 1992 M16 00:22:57 00:23:16
144 612 KANTORSKI MICHAŁ Kostrzyn 1987 M16 00:22:59 00:23:18
145 470 WALK MAC Miami Beach, FL ARE YOU NUTS ? 1979 M16 00:22:57 00:23:18
146 245 WYGRALAK PIOTR Poznań TEAM ASA - BIEGIEM PO ZDROWIE 1986 M16 00:23:10 00:23:20
147 705 SKOWROŃSKI KRZYSZTOF Poznań SIUPAKABRA / FUNDACJA RAK OFF 1983 M16 00:23:05 00:23:21
148 163 AKWARSKI JACEK Kostrzyn 1996 M16 00:23:15 00:23:29
149 839 BEDNAREK ARTUR Pobiedziska POBIEDZISKA 1983 M16 00:23:16 00:23:29
150 797 KULUS JAKUB Tarnowo Podgórne POZIOM WYŻEJ - TARNOWO BIEGA 1983 M16 00:23:17 00:23:29
151 629 KUNERT ŁUKASZ Poznan WEST SPORTS TEAM 1989 M16 00:23:12 00:23:31
152 493 TELICKI ANDRZEJ Poznań 1982 M16 00:23:20 00:23:31
153 654 KRAWCZUK PIOTR Poznań 1986 M16 00:23:14 00:23:32
154 375 JASIŃSKI MARCIN Kórnik 1982 M16 00:23:20 00:23:33
155 429 BŁOŃSKI RAFAŁ Puszczykowo YUPPI SQUAD 1982 M16 00:23:17 00:23:34
156 815 ĆWIETNIA RAFAŁ SIERAKÓW 1979 M16 00:23:16 00:23:34
157 522 KAMYCKI KRZYSZTOF Plewiska YUPPI SQUAD 1982 M16 00:23:20 00:23:36
158 704 MIELOCH BARTOSZ Kostrzyn 1989 M16 00:23:18 00:23:36
159 585 KOZUBSKI MARCIN Dąbrówka APLAUZ DĄBRÓWKA 1979 M16 00:23:28 00:23:37
160 763 JEZIERSKI PATRYK Pniewy 1997 M16 00:23:33 00:23:38
161 91 PONIEDZIAŁEK FILIP Plewiska YUPPI SQUAD 1984 M16 00:23:21 00:23:38
162 140 OLSZEWSKI TOMASZ Mosina CHEMADEX 1979 M16 00:23:31 00:23:41
163 308 BOGACZYK DAMIAN Środa Wielkopolska 1980 M16 00:23:35 00:23:42
164 251 JESZKA MAREK Poznań GOGGLE PRO ACTIVE EYEWEAR 1983 M16 00:23:21 00:23:44
165 194 GULCZYŃSKI MICHAŁ Poznań 1979 M16 00:23:18 00:23:45
166 331 DOLATA WOJCIECH Poznań 1993 M16 00:23:38 00:23:46
167 309 MALUŚKIEWICZ GRZEGORZ Zalasewo 1988 M16 00:23:36 00:23:49
168 400 PERZ FILIP Poznań NIGHT RUNNERS 1985 M16 00:23:11 00:23:49
169 513 STRABEL JACEK Komorniki KB INTREX POZNAŃ 1980 M16 00:23:39 00:23:53
170 636 PIĄTEK TOMASZ Poznań 1981 M16 00:23:36 00:23:54
171 35 PRĘTKOWSKI MICHAŁ Poznań 1986 M16 00:23:43 00:23:55
172 581 SOKOŁOWSKI MICHAŁ Poznań MUD GOATS 1980 M16 00:23:50 00:23:57
173 561 JANOWIAK KRYSTIAN Chodzież 1993 M16 00:23:38 00:23:59
174 725 MAJCHRZYCKI WOJCIECH Poznań PRESS-SERVICE MONITORING MEDIÓW 1985 M16 00:23:48 00:24:01
175 593 PRYŁ MICHAŁ Skórzewo / Poznań BBL 1979 M16 00:23:54 00:24:02
176 788 HAREMZA DAWID Poznań BRAK 1983 M16 00:23:57 00:24:04
177 162 PABICH MICHAŁ Poznań 1988 M16 00:23:50 00:24:04
178 903 REMBACZ ANDRZEJ Suchy Las 1979 M16 00:23:51 00:24:04
179 826 ANIOŁ HUBERT Poznań NIGHT RUNNERS 1979 M16 00:23:56 00:24:06
180 393 ŚLUSAREK GRZEGORZ Gołuski POKONACSIEBIE.PL 1981 M16 00:23:48 00:24:09
181 406 MALUJDY MICHAŁ Poznań 1991 M16 00:24:20 00:24:31
182 838 ANDRZEJEWSKI JAROSŁAW Konin 1983 M16 00:24:17 00:24:32
183 46 JAKUBOWSKI MACIEJ Luboń TOTAL RUNNERS 1996 M16 00:24:29 00:24:39
184 892 WĄGROWSKI BARTOSZ Poznań ROLNA PANIE 1982 M16 00:24:17 00:24:41
185 514 MĄDRY TYMOTEUSZ Poznań 1992 M16 00:24:21 00:24:43
186 359 SZYNKOWSKI VEL SĘK SZYMON Poznań 1982 M16 00:24:22 00:24:47
187 466 STEFAŃSKI DAWID Poznań ASA TEAM - BIEGIEM PO ZDROWIE 1987 M16 00:24:32 00:24:48
188 745 ZIMNIAK LESZEK Poznań 1984 M16 00:24:20 00:24:53
189 651 TONDER FILIP Poznań NIGHT RUNNERS 1981 M16 00:24:31 00:24:54
190 569 ZAGOZDA TOMASZ Luboń 1991 M16 00:24:37 00:24:54
191 295 BIGUS LECH Swarzędz 1983 M16 00:24:43 00:24:59
192 671 SZCZEPANIAK DAWID Poznań 1993 M16 00:24:03 00:24:59
193 77 SŁOWIŃSKI DAMIAN Poznań NIGHT RUNNERS 1980 M16 00:24:49 00:25:00
194 777 JANECKI TOMASZ Poznan OLB 1984 M16 00:24:46 00:25:01
195 739 STRYJAK PAWEŁ Poznań NIGHT RUNNERS 1990 M16 00:24:49 00:25:06
196 630 SZALA ŁUKASZ Poznań WEST SPORTS TEAM 1991 M16 00:24:50 00:25:08
197 584 ŻARNECKI MICHAŁ Poznań PROGRAMA.PL 1988 M16 00:24:43 00:25:12
198 473 FICHTNER ERNEST Luboń GEBS 1989 M16 00:24:50 00:25:15
199 900 GROSICKI KAMIL POZNAŃ 1983 M16 00:24:13 00:25:16
200 655 HORBOWSKI ADAM Poznań NIGHT RUNNERS 1980 M16 00:25:06 00:25:28
201 873 BIEDALAK KRZYSZTOF SWARZĘDZ 1984 M16 00:25:24 00:25:37
202 567 SZMAJDA REMIGIUSZ Poznań SULMOWIANKA SULMÓW 1983 M16 00:25:27 00:25:41
203 58 MAKOWSKI TOMASZ POZNAŃ NIGHT RUNNERS 1985 M16 00:25:41 00:25:46
204 656 MISZCZUK RAFAŁ Poznań KREW Z NOSA 1981 M16 00:25:21 00:25:46
205 660 TUREK MACIEJ Murowana Goślina MACIEJTUREK.PL 1987 M16 00:25:23 00:25:47
206 887 WALCZAK DARIUSZ Daszewice NIGHT RUNNERS 1986 M16 00:25:09 00:25:48
207 554 KUBIAK KRZYSZTOF Poznań BIEGIEM PO ZDROWIE - TEAM ASA 1989 M16 00:25:18 00:25:49
208 879 LIKSA ARTUR Poznań - 1981 M16 00:25:23 00:25:50
209 235 JACEK PIOTR Poznan 1985 M16 00:25:08 00:25:59
210 43 RZEPKA JAN Poznań TOTAL RUNNERS 1995 M16 00:25:44 00:26:00
211 609 KRUGIOŁKA PIOTR Poznań 1982 M16 00:25:44 00:26:08
212 848 SĘCZKOWSKI JAKUB Poznań 1985 M16 00:25:59 00:26:12
213 832 OSTROWSKI RADEK Puszczykowo 1980 M16 00:25:37 00:26:18
214 145 LANGE MAREK Poznań BBL 1980 M16 00:25:43 00:26:23
215 844 NOWAK FILIP Poznań ILIM 1979 M16 00:26:00 00:26:26
216 474 WYPIJEWSKI MACIEJ Poznań NIGHT RUNNERS 1985 M16 00:25:56 00:26:28
217 828 ANDRZEJEWSKI MICHAŁ CHOSZCZNO 1997 M16 00:25:54 00:26:30
218 764 BOJARCZUK KRZYSZTOF Koziegłowy BOJAR PHOTO 1987 M16 00:26:18 00:26:35
219 57 KUBAS ŁUKASZ Poznań NIGHT RUNNERS 1979 M16 00:26:17 00:26:38
220 238 KWIATKOWSKI SZYMON Poznań 1983 M16 00:26:22 00:26:40
221 234 KORBIK MICHAŁ Koziegłowy 1984 M16 00:26:14 00:26:41
222 793 KOSOWSKI TOMIR Poznań NIGHT RUNNERS 1985 M16 00:26:13 00:26:44
223 261 ŁAWNICZAK TOMASZ Poznań KB MANIAC POZNAŃ 1982 M16 00:26:12 00:26:50
224 880 ZATOR PIOTR Poznań 1983 M16 00:26:09 00:26:51
225 108 ZIĘBA MAREK Luboń BBL POZNAŃ 1982 M16 00:26:30 00:26:54
226 362 BRODNICKI DAMIAN Poznań KB MANIAC POZNAŃ 1983 M16 00:26:23 00:26:55
227 242 ŁUCZYŃSKI FELIKS Poznań EXTREAM 1985 M16 00:26:27 00:27:00
228 877 WÓJCIAK PAWEŁ PLEWISKA SII POWER PEOPLE 1980 M16 00:26:08 00:27:02
229 791 BAUZA MACIEJ Poznań 1983 M16 00:26:39 00:27:05
230 78 SKRZYPEK PIOTR Skórzewo APLAUZ DĄBRÓWKA 1979 M16 00:26:32 00:27:07
231 348 JODKO PIOTR Batorowo JODKO BROTHERS RUNNING TEAM 1979 M16 00:26:42 00:27:10
232 394 SZYMAŃSKI ADAM Poznan PRZECINEK 1988 M16 00:26:33 00:27:10
233 816 KSIĄŻKIEWICZ JACEK Wągrowiec CUKIERNIA KRÓLEWSKA KILIAN 1979 M16 00:26:37 00:27:11
234 435 WINIECKI PAWEŁ Skórzewo 1988 M16 00:26:22 00:27:11
235 520 GRABARKIEWICZ PATRYK Poznań 1984 M16 00:27:01 00:27:12
236 553 MARTYŁA PIOTR Poznań ORŁY FUNDACJA RAK-OFF 1982 M16 00:26:33 00:27:26
237 882 MAKAR MICHAŁ MALBORK 1987 M16 00:26:37 00:27:27
238 37 WINKEL ARTUR poznań 1982 M16 00:26:42 00:27:32
239 592 DUDEK ŁUKASZ Poznań NIGHT RUNNERS 1980 M16 00:27:08 00:27:37
240 440 ŻNIŃSKI ALEKSANDER Poznań 1987 M16 00:27:06 00:27:41
241 568 LIGĘZA BARTOSZ Zbąszyń 1990 M16 00:27:32 00:27:44
242 878 MALICKI MATEUSZ Poznań DRUŻYNA SZPIKU 1981 M16 00:26:55 00:27:45
243 386 MATYSIAK SEBASTIAN Wolsztyn MADZIA&SEBA TEAM 1982 M16 00:27:25 00:27:50
244 728 WITKOWSKI MARCIN Poznań 1990 M16 00:27:11 00:27:59
245 512 TALBIERZ PAWEŁ Poznań 1986 M16 00:27:14 00:28:00
246 719 DETTWEILER ARNAUD Poznan 1985 M16 00:27:51 00:28:04
247 678 WESOŁEK DANIEL Poznań 1988 M16 00:27:22 00:28:06
248 545 SŁOMA KRYSTIAN Poznań BIEGNĘ DLA FIOLETU! 1992 M16 00:27:57 00:28:16
249 381 POLCYN MACIEJ Poznań PAN TROLOLOLO 1996 M16 00:27:37 00:28:17
250 296 JODKO PAWEŁ Poznań 1979 M16 00:27:47 00:28:22
251 785 ROMANOWSKI MICHAŁ Poznań 1981 M16 00:27:58 00:28:41
252 682 CZEKAJ PRZEMYSŁAW Poznań TEAM ASA - BIEGIEM PO ZDROWIE 1987 M16 00:28:14 00:28:45
253 914 KOTLARSKI KRZYSZTOF Kębłowo 1985 M16 00:28:24 00:28:47
254 388 BIELEWICZ JAKUB Poznań 1994 M16 00:28:15 00:28:48
255 45 KMIECIAK KAROL Poznań TOTAL RUNNERS 1995 M16 00:28:31 00:28:57
256 676 BERCZYŃSKI PAWEŁ Kiekrz 1985 M16 00:28:23 00:29:05
257 437 GRUSZCZYŃSKI HUBERT Miłosław MIŁOSŁAW FORTUNA TEAM 1980 M16 00:28:46 00:29:08
258 117 NOWACZYK MICHAŁ Poznań 1979 M16 00:28:25 00:29:08
259 868 MATYSIAK MARCIN Ruchocice 1980 M16 00:28:50 00:29:15
260 47 HIRSCH MIKOŁAJ Poznań TOTAL RUNERS 1996 M16 00:28:31 00:29:19
261 79 KACZMAREK TOMASZ Poznań 1982 M16 00:28:36 00:29:25
262 208 SZUBARGA TOMEK Poznań 1987 M16 00:29:02 00:29:42
263 653 BERGER MATEUSZ Poznań ZABIESZCZADUJ.PL 1988 M16 00:28:54 00:29:49
264 433 JANKOWSKI MACIEJ Poznań 1991 M16 00:29:00 00:29:49
265 639 WACHOWIAK ARTUR Poznań PROGRAMA.PL 1987 M16 00:29:09 00:29:54
266 420 SKITEK PIOTR Poznań KLUB JANA RODZYNA 1981 M16 00:29:19 00:30:03
267 114 WIERZEJEWSKI MARCIN Kościan 1979 M16 00:29:42 00:30:08
268 458 SCHNECK MICHAŁ Bojanowo 1986 M16 00:29:24 00:30:11
269 498 GOSTYŃSKI BARTOSZ Poznan KLUB JANA RODZYNA 1984 M16 00:29:42 00:30:26
270 401 BRATKOWSKI ŁUKASZ Poznań 1982 M16 00:29:28 00:30:27
271 850 ŚWIETLICKI HUBERT Poznań KOLOROWE KREDKI 1983 M16 00:29:30 00:30:28
272 617 JANKOWIAK WIKTOR Poznań 1991 M16 00:29:46 00:30:32
273 806 JAROCKI ŁUKASZ Poznań 1991 M16 00:30:03 00:30:51
274 575 RYBACKI GRZEŚ Poznań BUKOWSKI KLUB BIEGACZA 1979 M16 00:30:44 00:31:18
275 488 GAWRON MICHAŁ Poznań PSIA BRAĆ 1985 M16 00:30:15 00:31:31
276 384 BARTOCHOWSKI ŁUKASZ Poznań 1981 M16 00:31:11 00:31:48
277 670 NIEMCZEWSKI BARTOSZ Poznań KREW Z NOSA 1982 M16 00:31:17 00:31:48
278 181 NOWAKOWSKI BŁAŻEJ Poznań 1979 M16 00:31:00 00:31:51
279 707 MELLER BŁAŻEJ Poznań KS HADES TECH-RACE 1984 M16 00:30:59 00:31:54
280 631 RYDLEWSKI MIŁOSZ Poznań 1991 M16 00:31:06 00:32:03
281 645 STRÓŻNIAK MIKOŁAJ Poznań DRUŻYNA SZPIKU 1986 M16 00:32:16 00:32:20
282 306 CZERNICKI JAKUB Suchy Las 1983 M16 00:31:51 00:32:27
283 578 BEDNARSKI GRZEGORZ Poznań PROGRAMA.PL 1985 M16 00:32:14 00:32:59
284 156 URBANIAK MICHAŁ Poznań 1984 M16 00:32:33 00:33:19
285 463 JANISZEWSKI ARKADY Poznań TFA 1989 M16 00:33:00 00:33:26
286 339 KARDASZ PRZEMYSŁAW Czapury 1982 M16 00:32:36 00:33:28
287 531 ŚWIRKOWICZ JAN Poznań 1987 M16 00:32:38 00:33:40
288 712 HAŃCZEWSKI JAN Poznań 1985 M16 00:33:01 00:33:51
289 842 DUDKOWIAK MICHAŁ JÓZEF Poznań KANCELARIA ADWOKATÓW 1985 M16 00:33:29 00:34:08
290 40 SYNOWIEC GRZEGORZ Przeźmierowo 1979 M16 00:33:47 00:34:23
291 397 SZAJEK MARCIN Poznań PROGRAMA.PL 1987 M16 00:34:06 00:34:51
292 421 ŻOK MATEUSZ Poznań NIGHT RUNNERS 1995 M16 00:34:55 00:35:39
293 821 BARTOSIK GRZEGORZ Poznań 1988 M16 00:36:58 00:37:42

Sponsor tytularny

Partnerzy generalni